PRAETORIAN SDA_607

Last updated on Thu Sep 10 2026 00:03:39 GMT+0000 (Coordinated Universal Time)

1 65570U 25203F 26252.47362562 .00000114 00000+0 92799-4 0 9992 2 65570 81.3017 292.6453 0008204 329.8208 30.2474 13.83763104 50362
UTC large
Height (km)
Speed (km/s)
/
Latitude / Longitude
Inclination (degrees)
Orbital Period (minutes)
Azimuth
Elevation
Range (km)
Doppler Factor

Next 0 passes for location: London (51.5072 / 0.1276)

No passes found over London.
PRAETORIAN SDA_607